NUSAT-4 (ADA)

Last updated on Thu Jan 04 2024 00:02:25 GMT+0000 (Greenwich Mean Time)

1 43195U 18015D 24003.54137767 .04087673 25702-5 91653-3 0 9999 2 43195 97.5589 180.5343 0005741 289.4456 70.6218 16.30262462330648
UTC large
Height (km)
Speed (km/s)
/
Latitude / Longitude
Inclination (degrees)
Orbital Period (minutes)
Azimuth
Elevation
Range (km)
Doppler Factor

Next 0 passes for location: London (51.5072 / 0.1276)

Sorry there are no passes over London.